Location: Unspecified
(60.0000°N, 0.0000°E)
Time: 10:05:15
(UTC+00:00)

deb NOAA 7 - Visible Passes

Search period start: 05 April 2026 00:00
Search period end: 15 April 2026 00:00
Orbit: 735 x 762 km, 98.5° (Epoch: 29 March)

Date Brightness Start Highest point End Pass type
(mag) Time Alt. Az. Time Alt. Az. Time Alt. Az.
5 Apr 5.7 20:12:05 10° S 20:17:03 72° WSW 20:22:05 10° NNW visible
5 Apr 7.9 21:53:29 10° WSW 21:56:38 17° W 21:59:49 10° NW visible
6 Apr 7.1 21:10:02 10° SSW 21:14:25 30° W 21:18:51 10° NNW visible
7 Apr 6.1 20:27:33 10° S 20:32:26 57° WSW 20:37:24 10° NNW visible
7 Apr 8.1 22:09:53 10° WSW 22:12:13 13° W 22:14:35 10° NW visible
8 Apr 5.5 19:45:42 10° SSE 19:50:41 79° ENE 19:55:44 10° NNW visible
8 Apr 7.5 21:25:52 10° SW 21:29:55 25° W 21:34:01 10° NW visible
9 Apr 6.5 20:43:04 10° S 20:47:51 45° W 20:52:41 10° NNW visible
9 Apr 8.3 22:27:14 10° W 22:27:51 10° WNW 22:28:28 10° WNW visible
10 Apr 5.6 20:01:01 10° SSE 20:06:00 84° WSW 20:11:05 10° NNW visible
10 Apr 7.8 21:41:50 10° SW 21:45:27 20° W 21:49:05 10° NW visible
11 Apr 6.9 20:58:42 10° SSW 21:03:17 36° W 21:07:56 10° NNW visible
12 Apr 5.8 20:16:24 10° S 20:21:21 68° WSW 20:26:24 10° NNW visible
12 Apr 8.0 21:57:59 10° WSW 22:00:59 16° W 22:04:02 10° NW visible
13 Apr 7.2 21:14:25 10° SSW 21:18:45 29° W 21:23:07 10° NNW visible
14 Apr 6.2 20:31:50 10° S 20:36:44 54° W 20:41:42 10° NNW visible
14 Apr 8.1 22:14:28 10° WSW 22:16:34 12° W 22:18:42 10° NW visible
